Location: Beeston
(52.7000°N, 0.8167°E)
Time: 14:51:10
(UTC+00:00)

USA 290 - Pass Details

Date: 15 May 2026
Orbit: 396 x 415 km, 73.6° (Epoch: 30 October)

Event Time Altitude Azimuth Distance (km) Brightness Sun altitude
Exits shadow 22:50:30 - 243° (WSW) 1,767 5.3 -17.0°
Reaches altitude 10° 22:51:27 10° 252° (WSW) 1,430 4.9 -17.0°
Maximum altitude 22:54:01 23° 307° (NW) 891 4.5 -17.1°
Drops below altitude 10° 22:56:37 10° 3° (N) 1,437 6.1 -17.2°
Sets 22:58:55 0° 18° (NNE) 2,297 7.0 -17.3°
